Location: Sternwarte ZA, Rosenfeld-Brittheim
(48.2889°N, 8.6789°E)
Time: 14:47:14
(UTC+01:00)

N. Korean satellite - Visible Passes

Search period start: 23 January 2018 00:00
Search period end: 02 February 2018 00:00
Orbit: 458 x 515 km, 97.2° (Epoch: 23 January)

Date Brightness Start Highest point End Pass type
(mag) Time Alt. Az. Time Alt. Az. Time Alt. Az.
23 Jan 8.0 06:52:20 10° NNE 06:55:39 41° E 06:58:56 10° S visible
23 Jan 9.3 19:06:01 10° SW 19:08:49 22° W 19:11:37 10° NW visible
24 Jan 9.3 06:29:05 10° NE 06:31:50 22° E 06:34:37 10° SSE visible
24 Jan 8.0 18:41:40 10° S 18:45:02 39° W 18:48:23 10° NNW visible
25 Jan 10.0 06:06:30 10° ENE 06:07:59 12° E 06:09:26 10° ESE visible
25 Jan 6.6 18:17:45 10° S 18:21:19 79° W 18:24:50 10° NNW visible
26 Jan 6.6 07:14:40 10° NNE 07:18:09 82° ESE 07:21:37 10° S visible
26 Jan 6.6 17:54:13 10° SSE 17:57:39 52° ENE 18:01:05 10° N visible
26 Jan 10.1 19:30:00 10° WSW 19:31:29 12° W 19:32:58 10° WNW visible
27 Jan 8.0 06:51:08 10° NNE 06:54:25 40° E 06:57:43 10° S visible
27 Jan 9.3 19:04:48 10° SSW 19:07:36 22° W 19:10:24 10° NW visible
28 Jan 9.3 06:27:52 10° NE 06:30:37 22° E 06:33:22 10° SSE visible
28 Jan 8.0 18:40:28 10° S 18:43:48 40° W 18:47:07 10° NNW visible
29 Jan 10.1 06:05:18 10° ENE 06:06:43 12° E 06:08:09 10° ESE visible
29 Jan 6.6 18:16:33 10° S 18:20:04 81° WSW 18:23:34 10° NNW visible
30 Jan 6.6 07:13:24 10° NNE 07:16:53 80° E 07:20:23 10° S visible
30 Jan 6.7 17:53:00 10° SSE 17:56:24 50° ENE 17:59:48 10° N visible
30 Jan 10.1 19:28:43 10° WSW 19:30:13 12° W 19:31:44 10° WNW visible
31 Jan 8.1 06:49:51 10° NNE 06:53:09 39° E 06:56:28 10° S visible
31 Jan 9.2 19:03:33 10° SSW 19:06:20 22° W 19:09:07 10° NW visible
01 Feb 9.4 06:26:35 10° NE 06:29:20 21° E 06:32:05 10° SE visible
01 Feb 7.9 18:39:12 10° S 18:42:31 41° W 18:45:50 10° NNW visible
